FW2998 Weather Reports


time (UTC)temp
C
wind
direction
speed
KPH
gust
KPH
rain 1hr
cm
rain 24hr
cm
rain mn
cm
humidity
%
barometer
mb
20260903222525 35 0 0.0 0.0 0.00 0.00 0.00 56 1015.8
20260903222025 35 0 0.0 0.0 0.00 0.00 0.00 55 1015.7
20260903221544 35 0 0.0 0.0 0.00 0.00 0.00 55 1015.8
20260903221022 35 0 0.0 0.0 0.00 0.00 0.00 55 1015.8
20260903220522 35 0 0.0 0.0 0.00 0.00 0.00 55 1015.8
20260903220047 35 0 0.0 0.0 0.00 0.00 0.00 56 1015.9
20260903215524 35 0 0.0 0.0 0.00 0.00 0.00 55 1015.9
20260903215025 36 0 0.0 0.0 0.00 0.00 0.00 54 1015.8
20260903214605 36 0 0.0 0.0 0.00 0.00 0.00 55 1015.9
20260903214024 36 0 0.0 0.0 0.00 0.00 0.00 54 1016.0
20260903213524 36 0 0.0 0.0 0.00 0.00 0.00 54 1015.8
20260903213058 36 0 0.0 0.0 0.00 0.00 0.00 53 1015.9
20260903212526 36 0 0.0 0.0 0.00 0.00 0.00 53 1015.9
20260903212026 36 0 0.0 0.0 0.00 0.00 0.00 53 1015.9
20260903211544 36 0 0.0 0.0 0.00 0.00 0.00 53 1015.9
20260903211021 36 0 0.0 0.0 0.00 0.00 0.00 53 1016.0
20260903210522 36 0 0.0 0.0 0.00 0.00 0.00 53 1015.9
20260903210103 36 0 0.0 0.0 0.00 0.00 0.00 53 1015.9
20260903205526 36 0 0.0 0.0 0.00 0.00 0.00 53 1016.0
20260903205023 36 0 0.0 0.0 0.00 0.00 0.00 55 1015.9
20260903204548 35 0 0.0 0.0 0.00 0.00 0.00 57 1015.9
20260903204022 35 0 0.0 0.0 0.00 0.00 0.00 55 1015.8
20260903203523 35 0 0.0 0.0 0.00 0.00 0.00 55 1015.9
20260903203104 35 0 0.0 0.0 0.00 0.00 0.00 54 1016.0
20260903202523 35 0 0.0 0.0 0.00 0.00 0.00 55 1016.1
20260903202021 35 0 0.0 0.0 0.00 0.00 0.00 55 1016.2
20260903201547 35 0 0.0 0.0 0.00 0.00 0.00 55 1016.2
20260903201025 35 0 0.0 0.0 0.00 0.00 0.00 55 1016.2
20260903200525 35 0 0.0 0.0 0.00 0.00 0.00 54 1016.3
20260903200051 35 0 0.0 0.0 0.00 0.00 0.00 54 1016.3
20260903195524 35 0 0.0 0.0 0.00 0.00 0.00 57 1016.5
20260903195024 35 0 0.0 0.0 0.00 0.00 0.00 56 1016.5
20260903194543 35 0 0.0 0.0 0.00 0.00 0.00 56 1016.6
20260903194024 35 0 0.0 0.0 0.00 0.00 0.00 58 1016.6
20260903193523 35 0 0.0 0.0 0.00 0.00 0.00 56 1016.7
20260903193047 35 0 0.0 0.0 0.00 0.00 0.00 59 1016.7
20260903192522 35 0 0.0 0.0 0.00 0.00 0.00 57 1016.7
20260903192023 35 0 0.0 0.0 0.00 0.00 0.00 57 1016.8
20260903191542 35 0 0.0 0.0 0.00 0.00 0.00 55 1016.8
20260903191023 35 0 0.0 0.0 0.00 0.00 0.00 57 1017.0
20260903190522 35 0 0.0 0.0 0.00 0.00 0.00 56 1016.9
20260903190044 35 0 0.0 0.0 0.00 0.00 0.00 57 1017.0
20260903185524 35 0 0.0 0.0 0.00 0.00 0.00 58 1017.0
20260903185023 35 0 0.0 0.0 0.00 0.00 0.00 59 1017.1
20260903184544 35 0 0.0 0.0 0.00 0.00 0.00 61 1017.1
20260903184026 35 0 0.0 0.0 0.00 0.00 0.00 58 1017.2
20260903183523 35 0 0.0 0.0 0.00 0.00 0.00 58 1017.3
20260903183049 35 0 0.0 0.0 0.00 0.00 0.00 57 1017.3
20260903182521 35 0 0.0 0.0 0.00 0.00 0.00 59 1017.4
20260903182023 35 0 0.0 0.0 0.00 0.00 0.00 59 1017.3
20260903181543 34 0 0.0 0.0 0.00 0.00 0.00 59 1017.4
20260903181023 34 0 0.0 0.0 0.00 0.00 0.00 59 1017.5
20260903180520 34 0 0.0 0.0 0.00 0.00 0.00 60 1017.4
20260903180046 35 0 0.0 0.0 0.00 0.00 0.00 58 1017.4
20260903175523 34 0 0.0 0.0 0.00 0.00 0.00 61 1017.5
20260903175023 34 0 0.0 0.0 0.00 0.00 0.00 61 1017.4
20260903174544 33 0 0.0 0.0 0.00 0.00 0.00 62 1017.4
20260903174022 33 0 0.0 0.0 0.00 0.00 0.00 62 1017.6
20260903173521 33 0 0.0 0.0 0.00 0.00 0.00 61 1017.6
20260903173047 34 0 0.0 0.0 0.00 0.00 0.00 60 1017.6
20260903172526 34 0 0.0 0.0 0.00 0.00 0.00 61 1017.6
20260903172023 34 0 0.0 0.0 0.00 0.00 0.00 61 1017.6
20260903171549 34 0 0.0 0.0 0.00 0.00 0.00 59 1017.7
20260903171021 34 0 0.0 0.0 0.00 0.00 0.00 60 1017.7
20260903170523 34 0 0.0 0.0 0.00 0.00 0.00 60 1017.8
20260903170046 34 0 0.0 0.0 0.00 0.00 0.00 61 1017.8
20260903165523 33 0 0.0 0.0 0.00 0.00 0.00 61 1017.9
20260903165023 33 0 0.0 0.0 0.00 0.00 0.00 62 1017.9
20260903164547 33 0 0.0 0.0 0.00 0.00 0.00 59 1017.9
20260903164028 33 0 0.0 0.0 0.00 0.00 0.00 64 1017.9
20260903163523 33 0 0.0 0.0 0.00 0.00 0.00 62 1018.1
20260903163043 33 0 0.0 0.0 0.00 0.00 0.00 66 1018.1
20260903162525 33 0 0.0 0.0 0.00 0.00 0.00 64 1018.2
20260903162027 33 0 0.0 0.0 0.00 0.00 0.00 63 1018.2
20260903161553 32 0 0.0 0.0 0.00 0.00 0.00 63 1018.3
20260903161023 32 0 0.0 0.0 0.00 0.00 0.00 65 1018.3
20260903160525 32 0 0.0 0.0 0.00 0.00 0.00 63 1018.5
20260903160045 32 0 0.0 0.0 0.00 0.00 0.00 64 1018.6
20260903155526 32 0 0.0 0.0 0.00 0.00 0.00 63 1018.7
20260903155027 32 0 0.0 0.0 0.00 0.00 0.00 64 1018.6
20260903154605 32 0 0.0 0.0 0.00 0.00 0.00 64 1018.7
20260903154024 32 0 0.0 0.0 0.00 0.00 0.00 65 1018.6
20260903153524 32 0 0.0 0.0 0.00 0.00 0.00 64 1018.6
20260903153044 32 0 0.0 0.0 0.00 0.00 0.00 63 1018.7
20260903152525 33 0 0.0 0.0 0.00 0.00 0.00 61 1018.7
20260903152023 34 0 0.0 0.0 0.00 0.00 0.00 61 1018.7
20260903151551 34 0 0.0 0.0 0.00 0.00 0.00 60 1018.8
20260903151025 34 0 0.0 0.0 0.00 0.00 0.00 63 1018.8
20260903150524 34 0 0.0 0.0 0.00 0.00 0.00 62 1018.6
20260903150043 33 0 0.0 0.0 0.00 0.00 0.00 63 1018.6
20260903145526 33 0 0.0 0.0 0.00 0.00 0.00 63 1018.6
20260903145024 33 0 0.0 0.0 0.00 0.00 0.00 64 1018.6
20260903144545 33 0 0.0 0.0 0.00 0.00 0.00 65 1018.6
20260903144029 32 0 0.0 0.0 0.00 0.00 0.00 66 1018.6
20260903143522 32 0 0.0 0.0 0.00 0.00 0.00 64 1018.6
20260903143102 32 0 0.0 0.0 0.00 0.00 0.00 63 1018.6
20260903142527 32 0 0.0 0.0 0.00 0.00 0.00 63 1018.7
20260903142026 32 0 0.0 0.0 0.00 0.00 0.00 64 1018.6
20260903141557 32 0 0.0 0.0 0.00 0.00 0.00 67 1018.6
20260903141030 31 0 0.0 0.0 0.00 0.00 0.00 66 1018.7
20260903140524 31 0 0.0 0.0 0.00 0.00 0.00 68 1018.7
20260903140046 31 0 0.0 0.0 0.00 0.00 0.00 67 1018.6
20260903135525 31 0 0.0 0.0 0.00 0.00 0.00 70 1018.5
20260903135028 30 0 0.0 0.0 0.00 0.00 0.00 71 1018.6
20260903134542 30 0 0.0 0.0 0.00 0.00 0.00 75 1018.6
20260903134025 30 0 0.0 0.0 0.00 0.00 0.00 78 1018.6
20260903133524 28 0 0.0 0.0 0.00 0.00 0.00 79 1018.6
20260903133046 28 0 0.0 0.0 0.00 0.00 0.00 80 1018.8
20260903132525 28 0 0.0 0.0 0.00 0.00 0.00 83 1018.7
20260903132024 27 0 0.0 0.0 0.00 0.00 0.00 85 1018.7
20260903131546 27 0 0.0 0.0 0.00 0.00 0.00 86 1018.8
20260903131023 26 0 0.0 0.0 0.00 0.00 0.00 89 1018.7
20260903130523 26 0 0.0 0.0 0.00 0.00 0.00 91 1018.7
20260903130043 26 0 0.0 0.0 0.00 0.00 0.00 94 1018.7
20260903125525 25 0 0.0 0.0 0.00 0.00 0.00 94 1018.8
20260903125025 25 0 0.0 0.0 0.00 0.00 0.00 94 1018.8
20260903124547 25 0 0.0 0.0 0.00 0.00 0.00 94 1018.8
20260903124018 25 0 0.0 0.0 0.00 0.00 0.00 94 1018.9
20260903123519 25 0 0.0 0.0 0.00 0.00 0.00 94 1018.9
20260903123044 24 0 0.0 0.0 0.00 0.00 0.00 94 1019.0
20260903122521 24 0 0.0 0.0 0.00 0.00 0.00 94 1018.9
20260903122019 23 0 0.0 0.0 0.00 0.00 0.00 93 1018.8
20260903121544 23 0 0.0 0.0 0.00 0.00 0.00 93 1018.9
20260903121025 23 0 0.0 0.0 0.00 0.00 0.00 92 1018.8
20260903120525 23 0 0.0 0.0 0.00 0.00 0.00 92 1018.8
20260903120044 23 0 0.0 0.0 0.00 0.00 0.00 92 1018.8
20260903115524 23 0 0.0 0.0 0.00 0.00 0.00 92 1018.7
20260903115024 23 0 0.0 0.0 0.00 0.00 0.00 91 1018.8
20260903114546 23 0 0.0 0.0 0.00 0.00 0.00 91 1018.6
20260903114023 23 0 0.0 0.0 0.00 0.00 0.00 91 1018.7
20260903113524 23 0 0.0 0.0 0.00 0.00 0.00 90 1018.6
20260903113044 23 0 0.0 0.0 0.00 0.00 0.00 90 1018.5
20260903112520 23 0 0.0 0.0 0.00 0.00 0.00 90 1018.5
20260903112027 23 0 0.0 0.0 0.00 0.00 0.00 90 1018.5
20260903111543 23 0 0.0 0.0 0.00 0.00 0.00 90 1018.4
20260903111023 23 0 0.0 0.0 0.00 0.00 0.00 90 1018.5
20260903110526 23 0 0.0 0.0 0.00 0.00 0.00 90 1018.4
20260903110052 23 0 0.0 0.0 0.00 0.00 0.00 90 1018.3
20260903105525 23 0 0.0 0.0 0.00 0.00 0.00 90 1018.3
20260903105023 23 0 0.0 0.0 0.00 0.00 0.00 90 1018.2
20260903104547 23 0 0.0 0.0 0.00 0.00 0.00 90 1018.2
20260903104022 23 0 0.0 0.0 0.00 0.00 0.00 90 1018.2
20260903103521 23 0 0.0 0.0 0.00 0.00 0.00 89 1018.1
20260903103050 23 0 0.0 0.0 0.00 0.00 0.00 89 1018.1
20260903102522 23 0 0.0 0.0 0.00 0.00 0.00 89 1018.1
20260903102027 23 0 0.0 0.0 0.00 0.00 0.00 89 1018.0
20260903101543 23 0 0.0 0.0 0.00 0.00 0.00 88 1017.9
20260903101025 23 0 0.0 0.0 0.00 0.00 0.00 88 1017.9
20260903100526 23 0 0.0 0.0 0.00 0.00 0.00 88 1018.0
20260903100043 23 0 0.0 0.0 0.00 0.00 0.00 88 1018.0
20260903095524 23 0 0.0 0.0 0.00 0.00 0.00 88 1018.0
20260903095018 23 0 0.0 0.0 0.00 0.00 0.00 88 1017.9
20260903094544 23 0 0.0 0.0 0.00 0.00 0.00 88 1017.9
20260903094033 23 0 0.0 0.0 0.00 0.00 0.00 88 1018.0
20260903093522 23 0 0.0 0.0 0.00 0.00 0.00 88 1018.0
20260903093102 23 0 0.0 0.0 0.00 0.00 0.00 88 1017.9
20260903092529 23 0 0.0 0.0 0.00 0.00 0.00 88 1017.9
20260903092025 24 0 0.0 0.0 0.00 0.00 0.00 88 1017.8
20260903091543 24 0 0.0 0.0 0.00 0.00 0.00 88 1017.8
20260903091024 24 0 0.0 0.0 0.00 0.00 0.00 87 1017.9
20260903090524 24 0 0.0 0.0 0.00 0.00 0.00 87 1017.9
20260903090051 24 0 0.0 0.0 0.00 0.00 0.00 87 1017.9
20260903085523 24 0 0.0 0.0 0.00 0.00 0.00 87 1017.9
20260903085022 24 0 0.0 0.0 0.00 0.00 0.00 86 1017.8
20260903084543 24 0 0.0 0.0 0.00 0.00 0.00 86 1017.8
20260903084026 24 0 0.0 0.0 0.00 0.00 0.00 86 1017.8
20260903083529 24 0 0.0 0.0 0.00 0.00 0.00 86 1017.9
20260903083044 24 0 0.0 0.0 0.00 0.00 0.00 86 1017.8
20260903082526 24 0 0.0 0.0 0.00 0.00 0.00 86 1017.8
20260903082025 24 0 0.0 0.0 0.00 0.00 0.00 86 1017.8
20260903081544 24 0 0.0 0.0 0.00 0.00 0.00 86 1017.7
20260903081023 25 0 0.0 0.0 0.00 0.00 0.00 86 1017.7
20260903080524 25 0 0.0 0.0 0.00 0.00 0.00 86 1017.7
20260903080047 25 0 0.0 0.0 0.00 0.00 0.00 86 1017.6
20260903075525 25 0 0.0 0.0 0.00 0.00 0.00 86 1017.6
20260903075024 25 0 0.0 0.0 0.00 0.00 0.00 86 1017.6
20260903074543 25 0 0.0 0.0 0.00 0.00 0.00 86 1017.4
20260903074028 25 0 0.0 0.0 0.00 0.00 0.00 86 1017.4
20260903073525 25 0 0.0 0.0 0.00 0.00 0.00 86 1017.4
20260903073043 25 0 0.0 0.0 0.00 0.00 0.00 86 1017.4
20260903072522 25 0 0.0 0.0 0.00 0.00 0.00 86 1017.3
20260903072029 25 0 0.0 0.0 0.00 0.00 0.00 86 1017.3
20260903071544 25 0 0.0 0.0 0.00 0.00 0.00 86 1017.2
20260903071023 25 0 0.0 0.0 0.00 0.00 0.00 86 1017.3
20260903070523 25 0 0.0 0.0 0.00 0.00 0.00 85 1017.3
20260903070057 25 0 0.0 0.0 0.00 0.00 0.00 85 1017.3
20260903065525 25 0 0.0 0.0 0.00 0.00 0.00 85 1017.1
20260903065025 25 0 0.0 0.0 0.00 0.00 0.00 85 1017.2
20260903064542 25 0 0.0 0.0 0.00 0.00 0.00 85 1017.3
20260903064024 26 0 0.0 0.0 0.00 0.00 0.00 85 1017.4
20260903063521 26 0 0.0 0.0 0.00 0.00 0.00 85 1017.4
20260903063108 26 0 0.0 0.0 0.00 0.00 0.00 85 1017.4
20260903062521 26 0 0.0 0.0 0.00 0.00 0.00 85 1017.3
20260903062020 26 0 0.0 0.0 0.00 0.00 0.00 85 1017.3
20260903061543 26 0 0.0 0.0 0.00 0.00 0.00 84 1017.4
20260903061024 26 0 0.0 0.0 0.00 0.00 0.00 84 1017.5
20260903060528 26 0 0.0 0.0 0.00 0.00 0.00 84 1017.4
20260903060045 26 0 0.0 0.0 0.00 0.00 0.00 84 1017.3
20260903055522 26 0 0.0 0.0 0.00 0.00 0.00 85 1017.4
20260903055024 26 0 0.0 0.0 0.00 0.00 0.00 85 1017.4
20260903054545 26 0 0.0 0.0 0.00 0.00 0.00 85 1017.4
20260903054018 26 0 0.0 0.0 0.00 0.00 0.00 85 1017.4
20260903053520 26 0 0.0 0.0 0.00 0.00 0.00 84 1017.4
20260903053043 26 0 0.0 0.0 0.00 0.00 0.00 84 1017.3
20260903052525 26 0 0.0 0.0 0.00 0.00 0.00 84 1017.3
20260903052024 26 0 0.0 0.0 0.00 0.00 0.00 84 1017.4
20260903051548 26 0 0.0 0.0 0.00 0.00 0.00 84 1017.5
20260903051024 26 0 0.0 0.0 0.00 0.00 0.00 83 1017.5
20260903050525 26 0 0.0 0.0 0.00 0.00 0.00 83 1017.5
20260903050110 26 0 0.0 0.0 0.00 0.00 0.00 83 1017.6
20260903045520 26 0 0.0 0.0 0.00 0.00 0.00 82 1017.7
20260903045021 26 0 0.0 0.0 0.00 0.00 0.00 82 1017.8
20260903044543 26 0 0.0 0.0 0.00 0.00 0.00 82 1017.9
20260903044025 27 0 0.0 0.0 0.00 0.00 0.00 82 1017.9
20260903043525 27 0 0.0 0.0 0.00 0.00 0.00 81 1017.9
20260903043043 27 0 0.0 0.0 0.00 0.00 0.00 81 1017.9
20260903042524 27 0 0.0 0.0 0.00 0.00 0.00 81 1017.9
20260903042024 27 0 0.0 0.0 0.00 0.00 0.00 81 1017.8
20260903041545 27 0 0.0 0.0 0.00 0.00 0.00 80 1017.9
20260903041019 27 0 0.0 0.0 0.00 0.00 0.00 80 1017.9
20260903040519 27 0 0.0 0.0 0.00 0.00 0.00 80 1018.0
20260903040054 27 0 0.0 0.0 0.00 0.00 0.00 79 1018.0
20260903035525 27 0 0.0 0.0 0.00 0.00 0.00 79 1018.0
20260903035025 27 0 0.0 0.0 0.00 0.00 0.00 79 1018.0
20260903034542 27 0 0.0 0.0 0.00 0.00 0.00 79 1018.1
20260903034024 27 0 0.0 0.0 0.00 0.00 0.00 79 1018.1
20260903033525 27 0 0.0 0.0 0.00 0.00 0.00 79 1018.2
20260903033046 27 0 0.0 0.0 0.00 0.00 0.00 79 1018.2
20260903032526 27 0 0.0 0.0 0.00 0.00 0.00 79 1018.2
20260903032023 27 0 0.0 0.0 0.00 0.00 0.00 78 1018.2
20260903031543 27 0 0.0 0.0 0.00 0.00 0.00 78 1018.2
20260903031021 27 0 0.0 0.0 0.00 0.00 0.00 78 1018.2
20260903030521 28 0 0.0 0.0 0.00 0.00 0.00 78 1018.2
20260903030043 28 0 0.0 0.0 0.00 0.00 0.00 78 1018.3
20260903025521 28 0 0.0 0.0 0.00 0.00 0.00 77 1018.3
20260903025023 28 0 0.0 0.0 0.00 0.00 0.00 77 1018.4
20260903024544 28 0 0.0 0.0 0.00 0.00 0.00 77 1018.4
20260903024024 28 0 0.0 0.0 0.00 0.00 0.00 77 1018.2
20260903023525 28 0 0.0 0.0 0.00 0.00 0.00 77 1018.2
20260903023045 28 0 0.0 0.0 0.00 0.00 0.00 76 1018.2
20260903022524 28 0 0.0 0.0 0.00 0.00 0.00 76 1018.3
20260903022021 28 0 0.0 0.0 0.00 0.00 0.00 76 1018.3
20260903021546 28 0 0.0 0.0 0.00 0.00 0.00 75 1018.2
20260903021019 28 0 0.0 0.0 0.00 0.00 0.00 75 1018.2
20260903020521 28 0 0.0 0.0 0.00 0.00 0.00 75 1018.2
20260903020050 28 0 0.0 0.0 0.00 0.00 0.00 75 1018.1
20260903015519 28 0 0.0 0.0 0.00 0.00 0.00 75 1018.1
20260903015020 29 0 0.0 0.0 0.00 0.00 0.00 75 1018.1
20260903014549 29 0 0.0 0.0 0.00 0.00 0.00 75 1018.1
20260903014022 29 0 0.0 0.0 0.00 0.00 0.00 74 1018.0
20260903013521 29 0 0.0 0.0 0.00 0.00 0.00 74 1018.0
20260903013044 29 0 0.0 0.0 0.00 0.00 0.00 74 1017.8
20260903012525 29 0 0.0 0.0 0.00 0.00 0.00 74 1017.7
20260903012027 29 0 0.0 0.0 0.00 0.00 0.00 74 1017.7
20260903011557 29 0 0.0 0.0 0.00 0.00 0.00 73 1017.5
20260903011019 30 0 0.0 0.0 0.00 0.00 0.00 73 1017.5
20260903010519 30 0 0.0 0.0 0.00 0.00 0.00 73 1017.4
20260903010043 30 0 0.0 0.0 0.00 0.00 0.00 72 1017.4
20260903005520 30 0 0.0 0.0 0.00 0.00 0.00 72 1017.4
20260903005023 30 0 0.0 0.0 0.00 0.00 0.00 71 1017.4
20260903004543 30 0 0.0 0.0 0.00 0.00 0.00 71 1017.3
20260903004026 30 0 0.0 0.0 0.00 0.00 0.00 71 1017.1
20260903003520 30 0 0.0 0.0 0.00 0.00 0.00 70 1017.1
20260903003043 30 0 0.0 0.0 0.00 0.00 0.00 69 1017.0
20260903002521 31 0 0.0 0.0 0.00 0.00 0.00 69 1017.0
20260903002024 31 0 0.0 0.0 0.00 0.00 0.00 69 1016.9
20260903001544 31 0 0.0 0.0 0.00 0.00 0.00 69 1016.8
20260903001022 31 0 0.0 0.0 0.00 0.00 0.00 68 1016.8
20260903000524 31 0 0.0 0.0 0.00 0.00 0.00 67 1016.8
20260903000043 31 0 0.0 0.0 0.00 0.00 0.00 67 1016.8
20260902235525 32 0 0.0 0.0 0.00 0.00 0.00 66 1016.8
20260902235023 32 0 0.0 0.0 0.00 0.00 0.00 66 1016.7
20260902234546 32 0 0.0 0.0 0.00 0.00 0.00 65 1016.6
20260902234025 32 0 0.0 0.0 0.00 0.00 0.00 64 1016.5
20260902233526 32 0 0.0 0.0 0.00 0.00 0.00 64 1016.6
20260902233051 32 0 0.0 0.0 0.00 0.00 0.00 64 1016.6
20260902232523 32 0 0.0 0.0 0.00 0.00 0.00 63 1016.6
20260902232023 33 0 0.0 0.0 0.00 0.00 0.00 63 1016.4
20260902231554 33 0 0.0 0.0 0.00 0.00 0.00 63 1016.5
20260902231021 33 0 0.0 0.0 0.00 0.00 0.00 63 1016.5
20260902230524 33 0 0.0 0.0 0.00 0.00 0.00 62 1016.5
20260902230041 33 0 0.0 0.0 0.00 0.00 0.00 62 1016.5
20260902225521 33 0 0.0 0.0 0.00 0.00 0.00 63 1016.5
20260902225024 34 0 0.0 0.0 0.00 0.00 0.00 61 1016.5
20260902224552 34 0 0.0 0.0 0.00 0.00 0.00 61 1016.5
20260902224023 34 0 0.0 0.0 0.00 0.00 0.00 61 1016.5
20260902223525 34 0 0.0 0.0 0.00 0.00 0.00 60 1016.6
20260902223044 35 0 0.0 0.0 0.00 0.00 0.00 59 1016.6